ARIANE 44LP DEB, 25538

Orbit data source: Space-Track

ARIANE 44LP DEB, 25538 is space debris in HEO originally from a launch on Sun, 11 Dec 1988 UTC launched from the French Guiana (FRGUI). Debris objects in space refer to the collection of defunct objects orbiting the Earth. Examples of debris include non-operational satellites, rocket bodies, and fragments generated from explosions, collisions, or faulty payload assembly.

Loading next visibility...
Identifier
25538, 1988-109E
Orbit
HEO
Country
Flag of FRFR
Related business
Manufacturer
Unknown
Mission
Spacecraft
Bus & Motor
Unknown
Mass
Unknown
Launch date (UTC)
1988-12-11 (38 years ago)
Launch vehicle
Unknown
Launch site
French Guiana (FRGUI)
Object type
Payload
Rocket body
Debris
Shape & HBR
Unknown shape, 1.1 m
Radar Cross Section
Medium (>0.1 m² and <1 m²)

Expand to show TLE details & history
Last TLE update: 9 hours ago

TLE from 9 hours ago
0 ARIANE 44LP DEB
1 25538U 88109E   26257.25461348 -.00000235  00000-0 -18412-2 0  9994
2 25538   6.8209  83.8064 7189761 359.3143 229.2730  2.24189336228113
Epoch: 2026-09-14T06:06Z
TLE epoch observation values (Epoch: 2026-09-14T06:06:38.604Z)
Latitude
-1.33381°
Longitude
-169.79701°
Altitude
33,730.824 km
Speed
1.927 km/s
True Right ascension
18h 20m 24s
True Declination
-1° 19' 57"
Sunlit
Object was in daylight at epoch
Visualization orbit readout
Latitude
Unknown
Longitude
Unknown
Altitude
Unknown
Speed
Unknown
Apparent Right ascension
Unknown
Apparent Declination
Unknown
Sunlit
N/A
Visualization observer readout
Local Sidereal Time
07:34:17
Azimuth
Unknown
Elevation
Unknown
Doppler factor
Unknown
Orbital elements
Apogee altitude
36,020.674 km
Perigee altitude
553.361 km
Semi-major axis
24,665.155 km
Eccentricity
0.71898
Inclination
6.8209°
RAAN
83.8064°
Arg. of periapsis
359.3143°
True anomaly
192.01818°
Mean anomaly
229.273°
Eccentric anomaly
209.18523°
Mean motion
0.5603 °/min
Orbital period
642.52 mins
BSTAR
-0.0018412
Loading maneuver chart data...
Computing Atmospheric mass density...
Loading historical data...
Loading historical data...
Loading historical data...
Loading historical data...
Loading historical data...
Loading historical data...
Loading historical data...

Documentation

Showing up to 5 results
|